FW1404 Weather Reports


Display with metric or nautical units.
time (UTC)temp
F
wind
direction
speed
MPH
gust
MPH
rain 1hr
in
rain 24hr
in
rain mn
in
humidity
%
barometer
mb
20260906102900 65 275 6.0 11.0 0.00 0.06 0.01 64 1025.2
20260906102403 64 303 6.0 12.0 0.00 0.06 0.01 65 1025.2
20260906101900 64 296 9.0 12.0 0.00 0.06 0.01 65 1025.2
20260906101401 64 268 7.0 12.0 0.00 0.06 0.01 65 1025.2
20260906100901 64 297 9.0 12.0 0.00 0.06 0.01 65 1025.1
20260906100401 65 277 4.0 13.0 0.00 0.06 0.01 63 1025.2
20260906095859 65 284 8.0 15.0 0.00 0.06 0.01 63 1025.1
20260906095403 66 265 8.0 15.0 0.00 0.06 0.01 64 1025.2
20260906095143 66 262 9.0 11.0 0.00 0.06 0.01 62 1025.1
20260906094403 66 293 5.0 14.0 0.00 0.06 0.01 62 1025.0
20260906093902 67 282 8.0 14.0 0.00 0.06 0.01 61 1025.1
20260906093401 67 251 7.0 14.0 0.00 0.06 0.01 65 1025.0
20260906092901 67 294 6.0 13.0 0.00 0.06 0.01 66 1025.1
20260906092402 67 332 8.0 16.0 0.00 0.06 0.01 67 1025.1
20260906091858 66 293 9.0 18.0 0.00 0.06 0.01 68 1025.1
20260906091400 66 300 12.0 18.0 0.00 0.06 0.01 68 1025.1
20260906090901 66 266 4.0 16.0 0.00 0.06 0.01 68 1025.1
20260906090401 66 262 13.0 16.0 0.00 0.06 0.01 68 1025.1
20260906085900 65 297 9.0 15.0 0.00 0.06 0.01 70 1025.1
20260906085400 65 235 6.0 16.0 0.00 0.06 0.01 68 1025.2
20260906084858 65 293 4.0 16.0 0.00 0.06 0.01 64 1025.2
20260906084400 65 279 6.0 11.0 0.00 0.06 0.01 64 1025.1
20260906083858 64 292 7.0 12.0 0.00 0.06 0.01 65 1025.0
20260906083359 64 235 7.0 12.0 0.00 0.06 0.01 65 1024.9
20260906082857 64 300 4.0 19.0 0.00 0.06 0.01 65 1025.0
20260906082359 64 275 5.0 19.0 0.00 0.06 0.01 66 1024.9
20260906081900 64 262 9.0 13.0 0.00 0.06 0.01 67 1024.9
20260906081359 64 297 9.0 13.0 0.00 0.06 0.01 71 1024.9
20260906080857 63 277 6.0 13.0 0.00 0.06 0.01 71 1024.9
20260906080358 62 289 8.0 14.0 0.00 0.06 0.01 68 1024.7
20260906075858 63 286 11.0 14.0 0.00 0.06 0.01 70 1024.7
20260906075400 63 314 6.0 11.0 0.00 0.06 0.01 70 1024.7
20260906074857 62 286 8.0 11.0 0.00 0.06 0.01 73 1024.8
20260906074642 61 229 8.0 17.0 0.00 0.06 0.01 73 1024.7
20260906073857 60 280 8.0 17.0 0.00 0.06 0.01 74 1024.5
20260906073641 59 255 10.0 17.0 0.00 0.06 0.01 76 1024.5
20260906072857 59 300 8.0 16.0 0.00 0.06 0.01 76 1024.5
20260906072359 58 256 6.0 14.0 0.00 0.06 0.01 77 1024.5
20260906071932 58 284 15.0 20.0 0.00 0.06 0.01 76 1024.3
20260906071921 58 287 6.0 20.0 0.00 0.06 0.01 76 1024.2
20260906070858 58 268 10.0 15.0 0.00 0.06 0.01 75 1024.3
20260906070357 59 272 7.0 14.0 0.00 0.06 0.01 75 1024.3
20260906065856 59 256 9.0 13.0 0.00 0.06 0.01 75 1024.2
20260906065645 59 283 8.0 15.0 0.00 0.06 0.01 75 1024.0
20260906064855 60 259 12.0 17.0 0.00 0.06 0.01 74 1024.0
20260906064356 60 292 8.0 17.0 0.00 0.06 0.01 74 1023.8
20260906063856 60 280 8.0 15.0 0.00 0.06 0.01 76 1023.9
20260906063355 59 306 8.0 15.0 0.00 0.06 0.01 76 1023.8
20260906062855 59 287 8.0 15.0 0.00 0.06 0.01 75 1023.7
20260906062355 58 270 9.0 15.0 0.00 0.06 0.01 76 1023.7
20260906062136 58 262 5.0 15.0 0.00 0.06 0.01 77 1023.6
20260906061355 58 266 12.0 16.0 0.00 0.06 0.01 78 1023.5
20260906060855 57 262 7.0 16.0 0.00 0.06 0.01 78 1023.5
20260906060355 57 238 8.0 15.0 0.00 0.06 0.01 78 1023.5
20260906060133 57 249 9.0 13.0 0.00 0.06 0.01 79 1023.4
20260906055639 57 304 8.0 15.0 0.00 0.06 0.01 80 1023.4
20260906054856 56 266 8.0 15.0 0.00 0.06 0.01 80 1023.3
20260906054354 56 235 7.0 13.0 0.00 0.06 0.01 82 1023.2
20260906053854 56 290 10.0 14.0 0.00 0.06 0.01 82 1023.2
20260906053355 55 303 8.0 14.0 0.00 0.06 0.01 82 1023.2
20260906052854 55 277 5.0 13.0 0.00 0.06 0.01 82 1023.1
20260906052354 55 276 6.0 15.0 0.00 0.06 0.01 82 1023.1
20260906051854 54 266 7.0 15.0 0.00 0.06 0.01 83 1022.9
20260906051354 54 289 6.0 18.0 0.00 0.06 0.01 83 1023.0
20260906050853 54 248 9.0 18.0 0.00 0.06 0.01 83 1023.0
20260906050354 54 255 6.0 12.0 0.00 0.06 0.01 83 1022.9
20260906045853 54 282 8.0 13.0 0.00 0.06 0.01 83 1022.9
20260906045353 54 276 10.0 15.0 0.00 0.06 0.01 83 1022.8
20260906044853 54 266 7.0 15.0 0.00 0.06 0.01 83 1022.7
20260906044353 54 297 6.0 15.0 0.00 0.06 0.01 83 1022.6
20260906043853 54 273 6.0 10.0 0.00 0.06 0.01 83 1022.6
20260906043353 54 270 5.0 11.0 0.00 0.06 0.01 83 1022.7
20260906042852 54 272 6.0 12.0 0.00 0.06 0.01 83 1022.6
20260906042352 54 270 7.0 15.0 0.00 0.06 0.01 83 1022.5
20260906041853 54 307 11.0 15.0 0.00 0.06 0.01 83 1022.4
20260906041353 54 306 8.0 13.0 0.00 0.06 0.01 83 1022.3
20260906040852 54 283 6.0 14.0 0.00 0.06 0.01 83 1022.2
20260906040352 54 286 6.0 14.0 0.00 0.06 0.01 83 1022.1
20260906035852 54 265 8.0 14.0 0.00 0.06 0.01 83 1022.1
20260906035353 54 270 8.0 15.0 0.00 0.06 0.01 83 1022.0
20260906034852 54 260 9.0 15.0 0.00 0.06 0.01 83 1022.1
20260906034353 54 262 8.0 10.0 0.00 0.06 0.01 83 1022.0
20260906033850 54 266 8.0 10.0 0.00 0.06 0.01 83 1021.9
20260906033352 54 248 6.0 11.0 0.00 0.06 0.01 83 1021.9
20260906032852 54 273 7.0 12.0 0.00 0.06 0.01 83 1021.9
20260906032634 54 262 4.0 12.0 0.00 0.06 0.01 84 1021.9
20260906031853 54 268 6.0 12.0 0.00 0.06 0.01 83 1021.8
20260906031351 54 270 8.0 16.0 0.00 0.06 0.01 83 1021.8
20260906031136 54 270 9.0 16.0 0.00 0.06 0.01 83 1021.5
20260906030351 54 262 5.0 10.0 0.00 0.06 0.01 83 1021.7
20260906025851 54 228 5.0 12.0 0.00 0.06 0.01 83 1021.7
20260906025350 54 273 8.0 12.0 0.00 0.06 0.01 84 1021.7
20260906024851 55 239 9.0 12.0 0.00 0.06 0.01 84 1021.7
20260906024352 55 231 6.0 14.0 0.00 0.06 0.01 84 1021.6
20260906023901 55 248 5.0 18.0 0.00 0.06 0.01 84 1021.6
20260906023351 55 273 9.0 18.0 0.00 0.06 0.01 84 1021.6
20260906022851 55 283 7.0 11.0 0.00 0.06 0.01 83 1021.7
20260906022350 55 248 6.0 13.0 0.00 0.06 0.01 83 1021.7
20260906021850 55 249 6.0 13.0 0.00 0.06 0.01 83 1021.5
20260906021349 55 249 8.0 12.0 0.00 0.06 0.01 83 1021.4
20260906020850 55 265 5.0 10.0 0.00 0.06 0.01 83 1021.4
20260906020351 55 265 8.0 10.0 0.00 0.06 0.01 82 1021.4
20260906020129 55 275 7.0 15.0 0.00 0.06 0.01 82 1021.4
20260906015424 55 286 11.0 17.0 0.00 0.06 0.01 82 1021.4
20260906015411 55 237 6.0 17.0 0.00 0.06 0.01 82 1021.4
20260906014351 55 283 4.0 12.0 0.00 0.06 0.01 82 1021.4
20260906014127 55 265 8.0 14.0 0.00 0.06 0.01 82 1021.3
20260906013350 55 270 6.0 14.0 0.00 0.06 0.01 82 1021.3
20260906013134 55 266 7.0 16.0 0.00 0.06 0.01 81 1021.2
20260906012350 55 269 9.0 16.0 0.00 0.06 0.01 82 1021.1
20260906011850 55 253 6.0 14.0 0.00 0.06 0.01 82 1021.1
20260906011349 56 279 7.0 14.0 0.00 0.06 0.01 82 1021.0
20260906010849 56 301 7.0 19.0 0.00 0.06 0.01 81 1021.0
20260906010349 56 269 9.0 19.0 0.00 0.06 0.01 81 1020.9
20260906010123 56 268 4.0 14.0 0.00 0.06 0.01 81 1020.8
20260906005348 56 277 9.0 14.0 0.00 0.06 0.01 81 1020.8
20260906004850 56 265 7.0 13.0 0.00 0.06 0.01 81 1020.7
20260906004349 56 273 10.0 13.0 0.00 0.06 0.01 81 1020.7
20260906003850 56 273 9.0 13.0 0.00 0.06 0.01 81 1020.7
20260906003349 56 283 8.0 13.0 0.00 0.06 0.01 81 1020.8
20260906002849 56 246 7.0 15.0 0.00 0.06 0.01 81 1020.6
20260906002334 56 270 7.0 15.0 0.00 0.06 0.01 81 1020.5
20260906001805 56 255 9.0 13.0 0.00 0.06 0.01 81 1020.6
20260906001307 56 258 6.0 14.0 0.00 0.06 0.01 80 1020.6
20260906000806 56 252 7.0 15.0 0.00 0.06 0.01 81 1020.6
20260906000553 56 284 9.0 15.0 0.00 0.06 0.01 81 1020.5
20260905235802 56 238 8.0 14.0 0.00 0.06 0.01 81 1020.5
20260905235307 56 287 7.0 14.0 0.00 0.06 0.01 81 1020.5
20260905234803 56 263 6.0 15.0 0.00 0.06 0.01 81 1020.4
20260905234305 57 297 10.0 15.0 0.01 0.06 0.01 81 1020.4
20260905233803 57 263 9.0 17.0 0.01 0.06 0.01 81 1020.5
20260905233305 57 266 7.0 17.0 0.01 0.06 0.01 81 1020.5
20260905232804 57 270 10.0 16.0 0.01 0.06 0.01 81 1020.5
20260905232308 57 265 9.0 16.0 0.01 0.06 0.01 82 1020.4
20260905231802 57 284 11.0 15.0 0.01 0.06 0.01 82 1020.4
20260905231303 56 255 6.0 17.0 0.01 0.06 0.01 82 1020.4
20260905230803 56 259 11.0 17.0 0.01 0.06 0.01 82 1020.3
20260905230304 56 270 8.0 13.0 0.01 0.06 0.01 82 1020.3
20260905225803 56 272 7.0 15.0 0.01 0.06 0.01 82 1020.3
20260905225352 56 256 11.0 18.0 0.01 0.06 0.00 83 1020.2
20260905225331 56 289 10.0 18.0 0.01 0.06 0.01 82 1020.2
20260905224305 56 266 11.0 18.0 0.00 0.06 0.00 83 1020.1
20260905224053 56 311 8.0 17.0 0.00 0.06 0.00 83 1020.0
20260905223305 56 327 11.0 17.0 0.00 0.06 0.00 83 1020.1
20260905222802 56 272 10.0 15.0 0.00 0.06 0.00 83 1020.0
20260905222307 56 276 9.0 15.0 0.00 0.06 0.00 83 1020.0
20260905221804 56 248 7.0 15.0 0.00 0.06 0.00 83 1020.0
20260905221305 56 227 7.0 11.0 0.00 0.06 0.00 84 1020.0
20260905220806 56 246 6.0 11.0 0.00 0.06 0.00 84 1020.0
20260905220304 56 258 6.0 12.0 0.00 0.06 0.00 84 1020.0
20260905215803 56 275 7.0 12.0 0.00 0.06 0.06 84 1020.0
20260905215308 56 245 9.0 11.0 0.00 0.06 0.06 84 1020.0
20260905215049 56 276 8.0 11.0 0.00 0.06 0.06 84 1019.8
20260905214304 56 268 4.0 9.0 0.00 0.07 0.06 84 1019.8
20260905213805 56 286 7.0 10.0 0.00 0.07 0.06 84 1019.8
20260905213305 56 246 6.0 10.0 0.00 0.07 0.06 84 1019.8
20260905213046 56 253 6.0 9.0 0.00 0.07 0.06 84 1019.8
20260905212306 56 287 7.0 11.0 0.00 0.07 0.06 84 1019.8
20260905211804 56 266 6.0 12.0 0.00 0.08 0.06 84 1019.7
20260905211305 56 268 7.0 13.0 0.00 0.09 0.06 84 1019.7
20260905210806 56 248 6.0 13.0 0.00 0.09 0.06 85 1019.7
20260905210305 56 284 6.0 15.0 0.00 0.09 0.06 85 1019.6
20260905205805 56 265 8.0 15.0 0.00 0.09 0.06 85 1019.6
20260905205306 56 293 6.0 14.0 0.00 0.10 0.06 85 1019.7
20260905204803 56 292 5.0 14.0 0.00 0.11 0.06 86 1019.5
20260905204305 56 253 8.0 17.0 0.00 0.12 0.06 86 1019.5
20260905203804 56 277 11.0 17.0 0.00 0.13 0.06 86 1019.5
20260905203303 56 279 8.0 12.0 0.00 0.14 0.06 86 1019.6
20260905202804 56 227 8.0 12.0 0.00 0.14 0.06 86 1019.4
20260905202552 56 263 6.0 10.0 0.00 0.14 0.06 86 1019.4
20260905201804 56 263 7.0 11.0 0.00 0.15 0.06 86 1019.4
20260905201305 56 252 6.0 11.0 0.00 0.15 0.06 86 1019.3
20260905200805 56 244 4.0 11.0 0.00 0.16 0.06 86 1019.3
20260905200553 56 246 6.0 11.0 0.00 0.16 0.06 85 1019.3
20260905195802 56 252 6.0 11.0 0.00 0.17 0.06 85 1019.1
20260905195307 56 273 8.0 11.0 0.00 0.18 0.06 86 1019.1
20260905194802 56 268 8.0 11.0 0.00 0.19 0.06 86 1019.1
20260905194303 57 252 4.0 10.0 0.00 0.20 0.06 86 1019.0
20260905193801 57 259 6.0 10.0 0.00 0.20 0.06 85 1018.9
20260905193307 57 292 7.0 11.0 0.00 0.20 0.06 86 1018.9
20260905192804 57 275 5.0 11.0 0.00 0.20 0.06 86 1018.9
20260905192556 57 237 6.0 13.0 0.00 0.21 0.06 85 1018.8
20260905191802 57 258 9.0 13.0 0.00 0.21 0.06 85 1018.7
20260905191304 57 270 7.0 11.0 0.01 0.21 0.06 86 1018.7
20260905190805 57 242 6.0 11.0 0.01 0.21 0.06 85 1018.7
20260905190307 57 284 6.0 10.0 0.01 0.22 0.06 85 1018.7
20260905185803 57 246 6.0 10.0 0.01 0.21 0.06 85 1018.6
20260905185551 57 237 5.0 9.0 0.01 0.21 0.06 85 1018.6
20260905185049 57 258 4.0 10.0 0.01 0.21 0.06 85 1018.6
20260905184305 57 262 6.0 14.0 0.01 0.21 0.06 85 1018.6
20260905184054 57 239 6.0 14.0 0.01 0.21 0.06 85 1018.7
20260905183306 57 260 7.0 15.0 0.01 0.21 0.06 84 1018.6
20260905182805 57 272 13.0 15.0 0.01 0.21 0.06 84 1018.5
20260905182306 57 268 8.0 14.0 0.01 0.21 0.06 83 1018.7
20260905181802 57 292 10.0 18.0 0.01 0.21 0.05 83 1018.7
20260905181337 58 299 6.0 10.0 0.00 0.21 0.05 85 1018.8
20260905181324 58 294 13.0 18.0 0.00 0.21 0.05 84 1018.7
20260905180305 58 293 6.0 16.0 0.00 0.21 0.05 85 1018.7
20260905180043 58 287 2.0 16.0 0.00 0.21 0.05 85 1018.5
20260905175306 58 313 4.0 6.0 0.00 0.21 0.05 85 1018.6
20260905175050 58 283 3.0 6.0 0.00 0.21 0.05 84 1018.3
20260905174306 58 314 2.0 7.0 0.00 0.21 0.05 84 1018.0
20260905174051 58 283 4.0 7.0 0.00 0.21 0.05 83 1017.9
20260905173305 58 279 3.0 7.0 0.00 0.21 0.05 83 1017.7
20260905172805 59 284 4.0 7.0 0.03 0.21 0.05 83 1017.6
20260905172305 59 283 3.0 6.0 0.05 0.21 0.05 83 1017.6
20260905171806 59 273 2.0 7.0 0.05 0.21 0.05 82 1017.6
20260905171307 59 258 4.0 9.0 0.05 0.21 0.05 82 1017.6
20260905170805 59 300 4.0 9.0 0.05 0.21 0.05 81 1017.6
20260905170245 60 270 6.0 9.0 0.05 0.21 0.05 81 1017.7
20260905170018 60 317 6.0 10.0 0.05 0.17 0.05 79 1017.6
20260905165246 61 299 7.0 10.0 0.05 0.17 0.05 78 1017.4
20260905164739 61 354 4.0 10.0 0.00 0.17 0.05 78 1017.4
20260905164242 62 311 3.0 10.0 0.00 0.17 0.05 77 1017.2
20260905164022 62 266 5.0 10.0 0.00 0.17 0.05 75 1016.9
20260905163241 64 306 2.0 13.0 0.00 0.17 0.05 75 1016.8
20260905162740 65 269 6.0 21.0 0.00 0.17 0.02 68 1016.7
20260905162250 67 334 11.0 21.0 0.00 0.17 0.00 64 1016.8
20260905162023 67 252 7.0 18.0 0.00 0.17 0.00 63 1016.2
20260905161236 67 276 5.0 17.0 0.00 0.17 0.00 63 1015.6
20260905160735 67 313 9.0 18.0 0.00 0.17 0.00 63 1015.5
20260905160236 67 273 15.0 18.0 0.00 0.17 0.00 63 1015.5
20260905155811 0 272 11.0 6.0 0.00 0.17 0.00 1015.4
20260905155753 67 258 8.0 17.0 0.00 0.17 0.00 63 1015.5
20260905154835 68 276 12.0 22.0 0.00 0.17 0.00 63 1015.4
20260905154334 68 276 12.0 22.0 0.00 0.17 0.00 63 1015.4
20260905153834 68 293 6.0 19.0 0.00 0.17 0.00 63 1015.4
20260905153623 67 275 13.0 19.0 0.00 0.17 0.00 63 1015.4
20260905152836 67 262 11.0 29.0 0.00 0.17 0.00 63 1015.4
20260905152332 67 211 14.0 29.0 0.00 0.17 0.00 63 1015.4
20260905151833 67 272 13.0 22.0 0.00 0.17 0.00 63 1015.3
20260905151332 67 260 8.0 22.0 0.00 0.17 0.00 63 1015.4
20260905150833 67 268 14.0 23.0 0.00 0.17 0.00 62 1015.5
20260905150331 68 252 12.0 24.0 0.00 0.17 0.00 63 1015.3
20260905145835 68 275 13.0 24.0 0.00 0.17 0.00 61 1015.3
20260905145333 68 215 12.0 23.0 0.00 0.17 0.00 62 1015.3
20260905144834 69 242 13.0 18.0 0.00 0.17 0.00 62 1015.3
20260905144333 69 265 12.0 29.0 0.00 0.17 0.00 61 1015.2
20260905143833 69 279 14.0 29.0 0.00 0.17 0.00 61 1015.1
20260905143332 69 255 12.0 23.0 0.00 0.17 0.00 63 1015.0
20260905142831 69 242 8.0 22.0 0.00 0.17 0.00 62 1015.2
20260905142421 68 306 12.0 21.0 0.00 0.17 0.00 61 1015.3
20260905142357 68 290 9.0 22.0 0.00 0.17 0.00 61 1015.2
20260905141332 68 238 9.0 22.0 0.00 0.17 0.00 61 1015.2
20260905140833 68 249 11.0 22.0 0.00 0.17 0.00 62 1015.2
20260905140333 68 277 12.0 23.0 0.00 0.17 0.00 60 1015.1
20260905135832 69 234 10.0 23.0 0.00 0.17 0.00 60 1015.2
20260905135334 69 238 12.0 24.0 0.00 0.17 0.00 60 1015.2
20260905134834 69 252 16.0 24.0 0.00 0.17 0.00 59 1015.1
20260905134326 70 289 11.0 27.0 0.00 0.17 0.00 60 1015.2
20260905133808 69 241 11.0 27.0 0.00 0.17 0.00 61 1015.0
20260905133305 70 273 13.0 22.0 0.00 0.17 0.00 61 1015.1
20260905132805 69 238 14.0 22.0 0.00 0.17 0.00 61 1015.1
20260905132305 69 241 16.0 23.0 0.00 0.17 0.00 64 1015.1
20260905131805 69 282 12.0 23.0 0.00 0.17 0.00 64 1015.2
20260905131303 68 283 8.0 16.0 0.00 0.17 0.00 66 1015.2
20260905131048 68 242 6.0 16.0 0.00 0.17 0.00 65 1015.3
20260905130303 68 284 10.0 18.0 0.00 0.17 0.00 64 1015.4
20260905130055 68 279 11.0 18.0 0.00 0.17 0.00 63 1015.2
20260905125306 68 232 9.0 18.0 0.00 0.17 0.00 63 1015.3
20260905124805 68 277 12.0 23.0 0.00 0.17 0.00 63 1015.3
20260905124557 69 251 13.0 23.0 0.00 0.17 0.00 61 1015.3
20260905124057 69 231 9.0 19.0 0.00 0.17 0.00 62 1015.3
20260905123543 69 277 13.0 20.0 0.00 0.17 0.00 62 1015.2
20260905122804 69 266 14.0 21.0 0.00 0.17 0.00 61 1015.2
20260905122557 69 273 13.0 21.0 0.00 0.17 0.00 59 1015.3
20260905121804 70 253 11.0 24.0 0.00 0.17 0.00 59 1015.2
20260905121557 70 252 14.0 24.0 0.00 0.17 0.00 58 1015.2
20260905121043 71 225 14.0 20.0 0.00 0.17 0.00 57 1015.2
20260905120539 71 259 9.0 20.0 0.00 0.17 0.00 59 1015.1
20260905115805 71 235 8.0 20.0 0.00 0.17 0.00 62 1015.1
20260905115306 70 268 6.0 18.0 0.00 0.17 0.00 62 1015.3
20260905115058 69 222 8.0 22.0 0.00 0.17 0.00 64 1015.2
20260905114305 68 206 10.0 22.0 0.00 0.17 0.00 65 1015.3
20260905113806 68 213 7.0 19.0 0.00 0.17 0.00 63 1015.5
20260905113305 69 265 8.0 19.0 0.00 0.17 0.00 62 1015.5
20260905112806 69 301 10.0 23.0 0.00 0.17 0.00 60 1015.5
20260905112306 71 210 12.0 23.0 0.00 0.17 0.00 60 1015.5
20260905111806 71 262 10.0 20.0 0.00 0.17 0.00 63 1015.5
20260905111305 70 292 11.0 26.0 0.00 0.17 0.00 61 1015.5
20260905111053 70 208 15.0 26.0 0.00 0.17 0.00 61 1015.4
20260905110311 71 253 13.0 23.0 0.00 0.17 0.00 61 1015.5
20260905105806 71 279 14.0 23.0 0.00 0.17 0.00 60 1015.5
20260905105306 71 220 9.0 15.0 0.00 0.17 0.00 62 1015.6
20260905104807 71 283 7.0 20.0 0.00 0.17 0.00 62 1015.6
20260905104548 71 249 9.0 20.0 0.00 0.17 0.00 61 1015.7
20260905103806 71 203 14.0 20.0 0.00 0.17 0.00 62 1015.7